Home > Weather > Fairbanks > Past weeks

Flag for U.S.A. Weather for the Past 2 Weeks in Fairbanks, Alaska, U.S.A.

Now
-6 °F

Clear.


Feels Like: -6 °F
Forecast: -19 / -6 °F
Wind: No wind

Location: Wainwright U. S. Army Airfield

Current Time: Feb 9, 2016 at 8:02:56 PM

Latest Report: Feb 9, 2016 at 6:58 PM


Visibility: 9 mi

Pressure: 30.20 "Hg

Humidity: 82%

Dew point: -10 °F

Location of FairbanksLocation

Historic Weather in Fairbanks — Graph

°F

Fairbanks Temperature Yesterday

Maximum temperature yesterday: 12 °F (at 1:58 PM)
Minimum temperature yesterday: -13 °F (at 6:58 AM)
Average temperature yesterday: -2 °F

High & Low Weather Summary for the Past Weeks

 TemperatureHumidityPressure
High33 °F (Jan 27, 5:58 PM)100% (Jan 30, 11:03 AM)30.23 "Hg (Jan 30, 11:03 AM)
Low-15 °F (Feb 2, 4:58 AM)59% (Feb 5, 1:58 PM)28.79 "Hg (Jan 28, 3:58 AM)
Average7 °F83%29.61 "Hg
* Reported Jan 25 5:58 PM — Feb 9 5:58 PM, Fairbanks, Weather by CustomWeather, © 2016

Note: Actual official high and low records may vary slightly from our data, if they occured in-between our weather recording intervals... More about our weather records

Advertising

Fairbanks Weather History for the Previous 24 Hours

 ConditionsComfort  
Time TempWeatherWind HumidityBarometerVisibility
5:58 PM
Tue, Feb 9
-3 °FClear.No wind86%30.20 "Hg10 mi
4:58 PM-2 °FSunny.No wind84%30.21 "Hg10 mi
3:58 PM3 °FSunny.No wind82%30.21 "Hg10 mi
2:58 PM0 °FSunny.No wind81%30.21 "Hg10 mi
1:55 PM2 °FPassing clouds.No wind69%30.22 "Hg25 mi
12:58 PM-2 °FSunny.No wind83%30.22 "Hg10 mi
11:58 AM-6 °FSunny.No wind81%30.23 "Hg10 mi
11:56 AM-6 °FPassing clouds.No wind77%30.22 "Hg10 mi
10:59 AM-11 °FPassing clouds.No wind76%30.22 "Hg10 mi
9:58 AM-14 °FPassing clouds.No wind78%30.20 "Hg10 mi
8:58 AM-13 °FPassing clouds.No wind80%30.19 "Hg10 mi
7:58 AM-13 °FPassing clouds.No wind79%30.16 "Hg10 mi
6:58 AM-12 °FClear.No wind79%30.14 "Hg10 mi
5:58 AM-10 °FClear.No wind80%30.11 "Hg10 mi
4:58 AM-11 °FClear.No wind80%30.08 "Hg10 mi
3:58 AM-11 °FClear.No wind80%30.06 "Hg9 mi
2:58 AM-10 °FClear.No wind80%30.03 "Hg10 mi
1:58 AM-8 °FClear.No wind81%30.01 "Hg10 mi
12:58 AM-8 °FClear.No wind82%29.99 "Hg10 mi
11:58 PM
Mon, Feb 8
-6 °FClear.No wind82%29.95 "Hg10 mi
10:58 PM-5 °FClear.No wind82%29.93 "Hg9 mi
9:58 PM-3 °FClear.No wind84%29.91 "Hg8 mi
8:58 PM-3 °FClear.No wind84%29.90 "Hg9 mi
Weather by CustomWeather, © 2016

See weather overviewHow to use our weather pages